Cloud_Cover
2 44 3 3 32 9 80 100 14 74 100 100 100 100 100 100 100 100 97 99 99 100 100 49 81 5 5 57 64 20 81 100 100 33 80 100 74 7 10 8 10 5 34
0 0 0 0 0 0 5 19 100 100 90 100 98 100 100 98 100 100 100 100 100 100 76 100 35 5 95 47 82 8 96 100 100 59 100 76 8 5 18 5 5 5 5
0 6 47 3 5 1 4 5 5 28 99 96 100 100 100 100 100 100 100 91 100 100 97 99 80 12 50 77 100 88 42 84 100 100 100 93 25 5 5 5 5 5 5
4 31 1 5 5 5 5 5 5 10 56 96 99 100 100 100 100 100 100 100 85 48 94 100 14 60 100 75 94 80 84 100 100 100 100 99 12 5 5 17 39 5 7
1 12 1 0 5 25 5 5 5 5 98 98 60 100 100 100 100 100 99 100 100 100 83 84 100 100 92 99 70 52 99 100 100 100 100 60 14 5 5 5 15 15 6
1 0 0 1 0 3 0 5 5 5 7 60 100 100 100 100 100 100 100 100 100 100 100 100 100 100 100 93 100 100 100 100 100 100 76 26 16 5 5 5 5 5 5
8 0 4 4 0 0 0 0 2 5 33 96 100 100 100 100 100 100 100 100 100 100 100 100 100 100 98 100 100 100 100 100 100 99 79 22 10 5 5 40 11 5 5
0 8 4 3 5 0 1 0 0 0 46 78 84 100 100 100 100 100 100 100 100 100 100 100 100 100 100 100 57 96 100 100 97 100 68 9 5 5 7 87 9 5 74
2 30 19 10 5 3 1 4 0 4 6 96 100 100 100 100 100 100 100 100 100 100 100 100 100 100 100 100 69 67 100 100 100 100 99 9 5 5 5 23 5 37 22
32 42 17 0 5 3 0 2 1 5 93 100 100 100 100 100 100 100 100 100 100 100 100 100 100 98 100 100 100 100 100 100 99 100 75 7 5 5 5 5 5 7 20
46 54 51 8 2 5 0 6 3 78 100 100 97 100 100 100 100 100 100 100 100 100 100 100 100 100 98 99 80 100 100 100 100 100 61 21 8 5 6 8 8 12 80
28 80 85 43 12 5 8 9 22 2 100 99 93 91 100 93 99 100 100 100 100 100 100 100 100 100 95 85 100 99 100 100 100 55 55 5 5 5 44 5 6 5 22
5 50 84 39 38 21 43 15 87 53 95 100 100 82 100 95 97 100 100 100 100 100 100 100 100 99 88 94 97 100 100 98 100 36 44 5 5 4 68 5 5 5 5
8 11 51 26 52 30 26 28 66 100 64 26 99 97 99 100 100 97 83 98 96 88 100 100 98 100 68 66 95 100 100 100 100 32 15 5 6 5 5 4 5 36 65
0 4 44 25 37 30 22 48 33 33 100 67 38 35 28 91 100 100 100 77 79 93 100 100 99 75 68 56 72 100 100 100 82 79 27 41 25 28 5 5 5 7 5
0 0 24 25 7 17 26 49 24 16 34 100 31 5 8 40 50 83 28 63 49 96 90 66 92 85 100 100 68 100 100 100 86 32 30 100 79 9 11 52 7 5 10
0 0 2 7 0 0 15 31 16 9 8 11 53 30 5 6 82 99 79 43 23 53 48 91 79 89 100 100 65 100 100 90 18 29 26 96 96 5 5 83 100 100 100
0 0 0 0 0 0 0 1 0 0 0 0 0 8 30 13 97 88 73 12 21 23 11 62 44 99 100 100 96 95 99 100 6 6 5 87 87 66 62 5 18 100 100
0 0 0 0 0 0 0 0 0 0 0 0 0 0 5 5 68 71 63 19 8 26 25 7 58 9 54 100 86 39 44 90 11 90 77 91 100 98 36 17 6 69 43
0 0 0 0 0 0 0 0 0 0 0 0 0 0 0 6 74 14 9 44 36 22 23 19 5 10 10 20 8 69 51 5 5 5 6 100 100 23 100 99 17 14 9
0 0 0 0 0 0 0 32 33 6 2 5 0 0 0 1 5 6 97 14 17 48 22 24 100 68 100 84 5 6 99 11 5 24 95 100 100 100 95 27 100 66 12
0 0 0 5 5 2 0 0 0 0 0 0 0 0 0 0 6 0 5 8 12 51 60 88 18 26 68 26 14 5 5 5 7 5 9 5 21 50 6 5 69 100 30
0 0 1 21 62 94 0 0 0 0 14 13 1 0 0 0 0 5 5 19 52 5 19 58 86 96 100 78 34 87 94 100 10 41 92 43 75 5 39 78 100 14 84
0 0 23 80 100 100 95 12 0 0 1 1 0 0 0 0 4 5 5 9 97 23 71 50 15 12 88 100 100 100 100 100 79 18 61 8 64 32 11 10 5 18 100
0 0 4 44 77 70 76 94 3 4 0 0 0 0 0 10 6 5 87 25 54 88 99 78 27 100 76 100 47 25 98 92 88 100 66 59 99 30 5 5 5 37 100
89 59 5 90 74 99 94 61 48 100 24 0 0 0 0 0 2 29 22 5 13 51 16 7 16 16 36 96 69 92 61 96 95 80 70 100 82 14 86 10 15 96 97